Location: Mt. Chestnut Observatory
(40.9038°N, 79.9956°W)
Time: 01:21:52
(UTC-04:00)

Daily predictions for brighter satellites

Satellite Brightness Start Highest point End
(mag) Time Altitude Azimuth Time Altitude Azimuth Time Altitude Azimuth
ATLAS 3B R/B 4.4 00:54:09 28° N 00:54:09 28° N 00:57:46 10° NNE
CENTAUR R/B 4.4 02:23:02 25° NE 02:23:02 25° NE 02:25:43 10° NE
CZ-2D R/B 4.2 03:04:31 10° NNE 03:06:59 23° NE 03:06:59 23° NE
Cosmos 2322 Rocket 4.1 03:14:58 25° NNE 03:14:58 25° NNE 03:17:14 10° NNE
SL-16 R/B 4.0 03:22:22 27° NNE 03:22:22 27° NNE 03:24:55 10° NNE
SL-16 R/B 3.6 03:21:34 39° NNE 03:21:34 39° NNE 03:25:36 10° N
ARIANE 5 R/B 4.4 03:26:39 10° NNE 03:29:07 27° NE 03:29:07 27° NE
COSMOS 2428 4.5 03:35:39 25° E 03:35:39 25° E 03:39:28 10° NE
Cosmos 2360 Rocket 3.4 03:42:22 38° NE 03:42:22 38° NE 03:45:53 10° NNE
Cosmos 1980 Rocket 4.4 03:43:56 16° NNW 03:43:56 16° NNW 03:45:49 10° N
ADEOS Rocket 3.5 03:51:30 10° NNE 03:55:33 48° NE 03:55:33 48° NE
Cosmos 2184 Rocket 4.4 03:54:37 10° N 04:00:45 57° E 04:01:18 55° E
CENTAUR R/B 4.0 04:10:12 25° NW 04:10:27 25° NW 04:16:08 10° NNE
Cosmos 2333 Rocket 3.9 04:19:44 22° SE 04:21:50 28° ESE 04:26:38 10° NE
USA 215 4.4 04:17:54 10° E 04:23:53 39° NNE 04:29:52 10° NW
Cosmos 2322 4.1 04:26:35 55° NNW 04:26:35 55° NNW 04:31:23 10° NNE
USA 229 DEB 4.2 04:29:44 40° SSE 04:31:39 51° ESE 04:38:19 10° NE
USA 229 4.2 04:29:49 40° SSE 04:31:46 51° ESE 04:38:25 10° NE
DELTA 2 R/B (1) 3.7 04:34:43 68° SE 04:34:43 68° SE 04:39:41 10° E
Resurs 1-4 Rocket 3.2 04:31:42 10° N 04:35:03 33° NNW 04:35:03 33° NNW
Cosmos 2327 Rocket 4.3 04:36:31 10° NNW 04:42:45 71° W 04:43:10 69° WSW
Cosmos 1844 4.3 04:37:53 10° NNW 04:43:34 56° ENE 04:49:08 10° SE
MOS 1 Rocket 3.3 04:39:56 10° NNE 04:44:28 68° E 04:44:28 68° E
Cosmos 2333 4.1 04:44:35 73° SSW 04:45:11 87° ESE 04:50:56 10° NNE
Nadezhda 1 Rocket 3.8 04:47:12 62° SSW 04:48:16 80° W 04:54:21 10° N
CZ-2D R/B 3.2 04:44:33 10° N 04:48:20 31° NW 04:48:20 31° NW
Cosmos 1610 Rocket 4.4 04:44:39 10° N 04:50:59 83° W 04:54:23 30° S
Cosmos 2208 Rocket 3.9 04:52:22 71° WSW 04:52:44 74° WNW 04:58:11 10° NNE
CZ-4B R/B 4.2 04:48:14 10° NNE 04:53:36 44° E 04:58:13 13° SSE
ADEOS II 3.0 04:50:03 10° NNE 04:55:07 46° E 04:59:01 16° SSE
Cosmos 2322 Rocket 4.2 04:56:46 14° NW 04:56:46 14° NW 04:59:27 10° NNW
NOSS 0 Rocket 4.4 04:59:30 24° S 05:03:09 57° ESE 05:09:10 10° NNE
SL-16 R/B 4.2 05:06:39 16° NW 05:06:39 16° NW 05:08:19 10° NW
Cosmos 2219 Rocket 2.1 05:02:20 44° SSW 05:04:12 81° ESE 05:09:49 10° NNE
SL-16 R/B 4.2 05:04:14 13° NW 05:04:20 13° NW 05:06:55 10° NNW
Cosmos 2074 Rocket 4.3 05:00:09 10° NNW 05:05:53 42° W 05:05:53 42° W
Cosmos 1844 Rocket 2.5 05:03:47 10° NNW 05:09:21 69° WSW 05:14:51 10° SSE
Cosmos 1867 3.8 05:04:53 10° NNW 05:10:21 69° NE 05:15:45 10° SE
ARIANE 5 R/B 4.1 05:06:40 10° NNW 05:09:28 20° NW 05:09:28 20° NW
Meteor 1-13 Rocket 4.1 05:08:27 35° SSW 05:10:55 85° W 05:16:36 10° N
Cosmos 468 Rocket 4.1 05:10:37 30° S 05:13:10 73° ESE 05:18:24 10° NNE
CZ-4B R/B 2.6 05:12:18 10° NNE 05:15:57 85° ESE 05:16:29 64° S
GENESIS II 4.3 05:15:21 57° S 05:16:04 74° ESE 05:20:09 10° NE
COSMOS 2428 3.1 05:17:41 40° W 05:18:51 45° WNW 05:24:19 10° NNE
Cosmos 1898 Rocket 3.5 05:15:08 10° NNW 05:20:22 84° ENE 05:25:32 10° SSE
Cosmos 2341 Rocket 3.9 05:14:27 10° N 05:20:43 87° W 05:26:56 10° S
Okean O Rocket 1.5 05:16:35 10° N 05:21:04 82° WNW 05:22:51 36° SSW
IRAS Rocket 4.5 05:16:35 10° NNE 05:22:08 69° ESE 05:27:41 10° S
Cosmos 2150 Rocket 4.3 05:17:54 10° NNW 05:23:12 69° ENE 05:28:34 10° SSE
Cosmos 2360 Rocket 3.6 05:24:08 20° WNW 05:24:47 20° NW 05:28:56 10° N
Meteor 2-19 Rocket 4.3 05:25:32 10° N 05:31:38 85° W 05:37:41 10° S
Cosmos 2278 Rocket 2.3 05:27:10 10° NNW 05:32:52 78° ENE 05:38:31 10° SSE
ATLAS 5 CENTAUR R/B 2.4 05:27:14 10° NW 05:33:19 87° SW 05:39:52 10° SSE
Cosmos 1763 Rocket 3.9 05:30:34 10° S 05:35:32 60° ESE 05:40:36 10° NNE
Meteor 1-23 Rocket 4.3 05:30:35 10° S 05:36:22 82° E 05:42:08 10° NNE
PSLV R/B 4.2 05:32:55 10° N 05:36:26 38° WNW 05:36:42 38° W
Cosmos 2237 Rocket 2.2 05:32:19 18° SSW 05:36:39 87° ESE 05:42:23 10° NNE
Cosmos 858 Rocket 4.4 05:34:10 10° NNW 05:39:26 76° WSW 05:44:39 10° SSE
Okean-O 3.8 05:36:04 10° NNE 05:40:19 43° E 05:44:31 10° S
ADEOS Rocket 4.3 05:38:41 10° NNW 05:41:56 16° WNW 05:42:31 16° WNW
Cosmos 1666 2.8 05:38:35 10° NNW 05:42:22 52° W 05:46:02 11° S
SL-8 R/B 3.6 05:40:15 17° WNW 05:43:55 87° NNE 05:48:42 10° ESE
Cosmos 1937 Rocket 3.4 05:39:29 10° NNW 05:44:51 83° WSW 05:50:07 10° SSE
Cosmos 1295 Rocket 4.4 05:41:36 10° NNW 05:47:45 67° W 05:53:48 10° S
Cosmos 2285 Rocket 4.1 05:45:57 15° SSW 05:51:16 62° WNW 05:57:40 10° NNE
Cosmos 841 Rocket 3.7 05:47:06 10° S 05:52:12 69° ESE 05:57:20 10° NNE
PSLV R/B 3.7 05:48:02 10° N 05:52:16 52° WNW 05:55:36 16° SW
Cosmos 405 Rocket 2.7 05:48:44 11° SSW 05:52:40 74° W 05:56:40 10° N
Meteor 2-4 Rocket 3.7 05:49:04 11° SSW 05:54:21 56° WNW 05:59:41 10° N
CZ-2C R/B 3.8 05:50:56 10° S 05:55:23 51° W 05:59:47 10° NNW
Cosmos 1743 4.2 05:54:28 10° NW 05:56:40 19° WNW 05:56:40 19° WNW
Cosmos 405 4.4 05:58:45 10° N 06:02:09 42° ENE 06:05:33 10° SSE
Cosmos 2058 Rocket 3.4 06:00:02 10° N 06:04:30 69° E 06:08:54 10° SSE
GPS 2-04 Rocket1 3.6 06:02:49 19° SW 06:05:11 37° S 06:08:47 10° ESE
Meteor PRIRODA 3.7 06:01:31 10° N 06:05:15 63° WNW 06:08:58 10° SSW
Cosmos 2333 Rocket 2.7 06:01:47 17° WSW 06:05:51 42° WNW 06:11:18 10° N
Cosmos 2366 rocket 4.0 05:59:34 10° N 06:05:59 86° W 06:12:19 10° S
USA 215 3.2 06:00:03 10° SE 06:06:35 73° SW 06:13:08 10° NW
CZ-4C R/B 4.0 06:00:27 10° NNW 06:07:15 47° NE 06:14:45 10° ESE
Cosmos 1814 Rocket 4.3 06:04:23 12° SW 06:08:57 48° WNW 06:13:56 10° N
Timation 1 Rocket 4.3 06:03:12 10° NNW 06:09:13 82° WSW 06:15:11 10° SSE
Meteor 1-15 Rocket 4.3 06:05:34 10° NNW 06:11:26 63° W 06:17:14 10° S
ERBS 3.6 06:08:16 10° NNW 06:11:38 43° NE 06:14:59 10° ESE
Cosmos 1606 Rocket 3.7 06:11:16 10° NNW 06:15:38 53° W 06:19:59 10° S
Aureole 2 Rocket 3.6 06:14:51 16° WSW 06:16:40 24° WNW 06:19:25 10° N
Meteor 2-21 4.5 06:11:01 10° N 06:17:15 85° W 06:23:26 10° S
OTV 4 1.4 06:16:08 15° SW 06:18:00 32° SSE 06:20:32 10° ESE
Cosmos 1346 2.8 06:16:27 10° S 06:19:16 90° ESE 06:22:08 10° N
DELTA 2 R/B (1) 3.6 06:15:28 13° W 06:20:30 71° S 06:26:02 10° ESE
Meteor 1-31 Rocket 2.8 06:16:49 10° N 06:20:34 56° WNW 06:24:18 10° SSW
USA 229 DEB 4.5 06:17:11 13° WSW 06:22:49 37° NW 06:29:12 10° NNE
USA 229 4.4 06:17:16 13° WSW 06:22:55 37° NW 06:29:18 10° NNE
ERS-2 2.4 06:19:47 10° N 06:23:21 46° WNW 06:26:53 10° SW
SWAS 4.5 06:19:07 10° NNW 06:23:29 89° NE 06:27:48 10° SSE
Iridium 2 4.3 06:21:11 10° NNW 06:24:41 35° W 06:28:11 10° SSW
SJ-6F 4.3 06:20:56 10° N 06:25:02 79° WNW 06:29:06 10° SSW
Cosmos 2228 3.0 06:24:11 10° N 06:28:32 79° W 06:32:53 10° S
Meteor 2-14 Rocket 4.5 06:25:54 10° N 06:32:05 86° W 06:38:13 10° S
Nadezhda 3 Rocket 4.2 06:27:42 10° S 06:33:49 77° E 06:40:01 10° N
CZ-4B R/B 4.3 06:29:18 10° N 06:33:53 26° WNW 06:38:24 10° WSW
SL-8 Rocket 4.5 06:28:35 10° NNW 06:34:10 37° W 06:39:43 10° SSW
ADEOS II 3.3 06:30:28 10° NNW 06:34:30 23° WNW 06:38:32 10° WSW
NOSS 3-1 (A) 3.4 06:28:50 10° SW 06:34:37 77° NW 06:41:09 10° NNE
Hubble Space Telescope 3.0 06:32:40 10° SW 06:34:57 14° S 06:37:15 10° SSE
SL-16 R/B 2.2 06:29:51 10° SSW 06:35:29 73° WNW 06:41:12 10° NNE
NOSS 3-1 (C) 3.6 06:29:54 10° SW 06:35:36 57° NW 06:42:02 10° NNE
Cosmos 1437 Rocket 2.9 06:34:07 10° N 06:38:14 87° E 06:42:16 10° S
Cosmos 1025 Rocket 4.5 06:35:32 10° WSW 06:38:44 20° WNW 06:41:58 10° NNW
